Torna al catalogo

STARLINK-31508

AttivoComunicazioniVLEO
NORAD 59503·PAYLOAD·🇺🇸 United States

Lanciato Apr 13, 2024 da Cape Canaveral Space Force Station

Loading…

Prossimi Passaggi (prossime 24 ore)

TLE

AggiornatoSource: CelesTrak SupGP

Epoca: Sep 14, 2026, 14:24 UTC

1 59503C 24071V   26257.60048611 -.00044487  00000+0 -16119-2 0  2579
2 59503  43.0023 353.2775 0001425 272.2144  43.9265 15.27589043    16

Traccia STARLINK-31508 in tempo reale con AllMySat

Download on the App Store